Theta_e
319 318 318 318 317 316 315 315 315 315 315 315 314 314 315 315 314 315 315 312 312 311 310 309 308 308 307 307 307 307 307 307 308 308 307 307 307 308 308 308 308 309 311 313 315 316 317 318 319 320 322 324 325 326 326 326 327 327 327 326 324 326 325 322 319 318 322 326 327 325 329 329 328 324 320 321 319 312 313 313 312 313 312 308 308
318 318 317 317 316 316 316 316 315 314 315 314 314 313 314 314 314 313 311 311 311 310 308 308 308 308 306 306 306 306 306 305 306 306 305 305 306 308 308 307 307 307 309 310 312 314 315 316 317 319 320 321 324 325 326 325 325 325 325 326 325 325 326 323 321 319 318 323 325 328 326 328 326 324 321 320 314 310 309 310 311 311 311 307 305
318 317 317 316 316 316 316 314 314 314 314 314 313 313 313 313 313 312 311 310 310 310 309 308 308 307 306 306 305 305 305 305 306 306 305 305 305 305 306 306 306 306 307 308 310 311 312 314 315 317 320 320 321 324 325 325 326 325 325 326 325 325 326 326 323 320 319 320 324 323 324 325 325 320 322 321 313 311 309 309 308 308 308 305 304
317 316 316 316 315 315 314 314 314 314 313 313 313 313 313 313 313 312 311 311 309 310 309 308 307 306 306 305 305 305 305 305 305 305 305 305 304 304 305 305 305 306 306 307 308 309 310 311 313 315 316 317 319 320 324 325 324 324 324 324 324 323 324 324 325 323 322 320 322 323 324 322 324 322 321 317 310 310 310 309 309 307 305 305 303
316 315 314 314 315 314 314 314 313 313 313 313 313 313 313 313 313 311 311 310 309 309 308 308 307 306 305 304 304 304 305 305 305 305 305 305 305 305 305 304 305 305 306 306 308 308 309 310 312 313 314 315 316 318 319 321 324 324 323 323 322 324 325 325 325 325 322 321 321 322 324 322 323 323 319 312 308 309 310 308 306 305 304 303 303
316 314 314 314 314 314 314 313 313 312 312 312 313 313 313 312 311 312 310 308 308 308 307 306 306 305 305 305 305 305 305 305 305 305 305 305 305 305 305 305 305 305 305 305 306 307 308 309 311 312 313 313 314 316 318 319 320 322 323 323 323 323 324 325 324 323 323 321 321 318 321 320 320 313 313 309 306 306 306 305 303 302 301 299 299
315 314 314 313 313 313 313 312 312 312 312 312 313 312 311 312 310 308 309 308 306 305 305 305 305 305 305 305 305 305 305 306 305 305 305 305 304 304 303 304 304 304 304 305 306 306 307 308 309 310 311 313 314 315 316 317 319 319 322 323 323 323 322 323 323 322 322 320 320 320 318 319 317 311 310 308 306 305 302 300 298 300 299 298 297
314 313 313 313 313 313 313 313 312 312 313 312 312 312 311 310 309 310 309 306 305 304 304 304 304 304 304 304 305 305 305 304 304 304 304 304 304 304 303 303 303 303 303 304 305 305 306 307 307 308 310 311 313 314 316 316 317 317 319 322 324 323 322 321 320 320 321 320 319 318 317 317 315 314 310 307 304 302 302 299 297 297 298 297 297
313 312 312 312 312 312 312 312 312 312 311 310 310 309 309 310 310 308 306 305 306 305 304 304 303 303 304 304 304 305 305 304 304 304 304 303 303 303 303 303 303 303 303 303 304 304 304 305 306 307 309 309 307 307 309 310 315 315 316 318 319 321 322 321 321 320 318 319 319 320 317 315 312 308 306 304 302 300 301 301 298 298 297 295 295
313 311 311 311 311 310 310 311 311 310 310 309 308 309 309 309 308 306 305 304 304 304 304 304 303 303 302 303 303 304 304 305 303 300 300 303 303 302 303 303 302 302 302 302 303 303 304 304 305 306 304 304 303 302 301 302 304 308 312 313 314 316 319 320 320 320 320 320 320 319 316 313 310 308 305 304 304 302 300 300 296 296 295 294 294
312 311 310 311 310 310 309 309 309 308 308 308 309 308 306 306 305 304 304 304 304 304 303 302 301 302 301 301 301 302 303 303 299 296 295 296 299 301 301 301 301 301 300 300 301 302 303 304 304 305 305 304 305 301 300 300 300 301 302 303 305 311 312 316 318 320 320 320 319 319 317 313 309 308 305 304 304 302 301 300 298 295 293 292 290
311 310 309 309 309 309 309 309 308 307 307 306 306 305 307 307 304 303 303 303 303 304 302 301 301 300 301 301 300 301 301 299 296 295 295 295 296 299 300 300 300 300 300 299 299 300 300 302 303 305 305 306 307 307 306 302 300 300 300 300 299 299 301 309 313 317 320 319 318 319 318 313 309 308 306 305 304 303 302 301 298 295 294 293 293
309 309 308 308 308 309 308 307 306 306 306 306 306 307 306 304 302 302 302 302 304 303 301 301 300 300 300 299 299 299 300 297 295 295 294 293 293 295 298 299 299 299 299 299 299 299 299 300 300 302 304 305 307 307 307 308 304 300 301 302 301 300 298 296 300 313 320 321 320 320 317 316 310 309 308 306 305 303 302 301 299 298 296 296 295
308 307 307 308 308 308 307 306 306 306 307 306 305 304 303 302 303 302 302 302 302 302 301 299 299 299 299 299 299 299 299 297 295 294 294 293 293 293 296 297 298 298 298 299 299 299 299 298 298 299 301 303 305 307 308 308 309 311 309 309 310 309 303 300 298 298 307 319 320 320 320 319 312 311 310 307 305 303 302 301 301 299 298 297 298
307 307 307 307 307 307 306 305 305 305 305 305 306 304 302 302 302 301 302 302 300 299 298 298 299 299 299 299 298 298 299 296 294 294 294 293 293 293 296 296 297 297 297 298 298 299 299 299 298 298 299 300 302 304 306 308 310 312 313 314 313 313 314 313 312 309 309 316 321 321 322 320 317 314 311 309 307 306 305 304 303 302 301 302 300
306 307 307 306 306 306 306 306 306 305 304 304 303 302 302 302 301 302 302 301 301 299 299 299 298 298 298 298 298 297 298 295 293 293 292 292 292 295 296 296 296 296 296 297 297 298 298 298 298 298 298 299 299 296 298 302 305 307 311 313 314 316 316 311 309 309 313 317 321 323 323 320 311 314 311 310 308 308 307 307 305 303 301 299 295
305 306 306 306 306 306 305 305 305 304 304 303 301 302 301 302 302 302 300 299 298 298 297 298 298 297 297 297 297 296 297 296 293 293 292 292 292 294 295 295 295 295 295 296 297 297 298 298 298 298 298 298 297 295 295 296 301 303 305 307 312 315 316 318 308 304 304 306 308 310 309 307 306 301 301 302 306 308 307 305 302 303 300 297 293
305 305 305 305 305 305 305 303 303 303 303 302 302 303 303 302 301 302 299 298 297 297 297 297 297 297 297 296 296 296 296 296 293 293 292 292 293 294 294 294 294 294 294 295 296 296 297 298 299 298 297 298 296 294 294 296 299 301 302 304 307 310 314 313 310 306 302 304 305 305 305 306 302 300 300 300 301 304 307 303 303 303 300 298 293
305 304 304 304 304 304 305 304 304 305 303 303 304 302 301 301 301 301 300 298 297 297 297 296 296 296 296 296 297 295 295 295 294 292 292 292 293 294 294 293 292 292 293 293 294 295 296 297 298 298 298 297 294 294 293 295 298 300 302 304 306 307 312 310 311 308 309 309 310 311 307 304 305 306 305 299 300 303 308 307 305 303 301 298 296
305 304 303 303 306 307 308 306 304 304 304 304 303 302 302 301 300 299 299 298 296 296 296 295 294 294 295 295 295 295 294 294 295 292 292 292 292 293 293 292 291 292 292 293 293 294 295 295 296 294 293 293 293 293 293 293 296 298 299 300 305 308 312 310 311 313 312 314 314 313 314 313 308 308 306 304 305 306 307 306 306 305 303 300 297
303 302 303 302 302 302 303 306 307 306 305 304 303 302 301 300 299 298 297 297 296 295 295 294 294 294 294 294 293 294 294 294 294 292 292 291 291 291 292 292 292 292 292 292 293 293 294 295 296 295 293 292 292 292 293 293 294 297 297 298 299 303 304 311 308 303 313 312 311 311 309 308 308 307 306 305 305 307 305 303 306 306 304 300 297
302 302 302 301 303 306 307 307 306 306 306 304 302 300 301 300 298 298 297 296 295 294 294 294 293 292 293 293 293 293 294 294 293 292 291 291 291 291 291 292 293 293 292 292 293 293 294 294 295 295 293 293 292 292 292 293 293 296 297 295 294 294 300 308 310 309 309 307 304 305 305 305 304 304 304 305 305 303 304 304 304 306 306 304 301
301 302 302 302 306 306 306 305 305 306 305 303 301 300 300 299 299 298 297 296 294 293 292 292 292 291 291 292 292 292 292 292 292 292 291 291 291 290 290 290 291 292 292 292 292 293 294 295 295 294 293 293 292 292 292 292 293 295 293 293 293 294 296 306 307 309 307 305 303 302 302 303 303 303 303 302 301 302 302 302 302 302 301 301 301
302 302 303 305 303 302 301 306 307 305 304 303 300 299 298 299 298 297 296 294 292 291 291 291 291 290 290 290 291 291 291 291 291 291 291 290 290 290 290 289 290 291 292 292 292 293 293 294 294 293 293 293 292 292 292 292 294 293 293 293 293 294 301 305 304 306 301 300 300 300 300 301 302 302 301 299 299 299 297 298 298 299 298 297 297
303 303 302 301 304 300 304 304 304 303 303 301 298 297 298 298 296 296 295 294 292 291 291 291 290 289 289 289 289 290 290 290 290 290 289 290 289 289 289 289 289 289 290 291 292 293 292 292 291 292 292 292 292 292 293 293 292 292 293 293 295 299 302 305 305 304 301 299 300 300 299 300 301 300 299 298 296 296 295 295 295 296 296 296 296
301 301 299 303 300 298 299 302 299 300 300 299 299 299 298 296 295 295 295 293 292 292 291 290 289 288 288 288 288 288 289 289 288 289 290 290 290 289 289 289 289 289 290 290 290 290 290 291 291 291 292 293 295 295 296 297 294 293 292 294 298 302 304 305 305 303 301 300 298 298 298 297 296 297 297 296 295 294 294 293 293 293 294 294 293
300 303 303 302 301 304 302 298 299 300 302 300 298 298 299 296 296 292 293 292 292 291 290 289 288 288 287 287 287 287 287 287 287 288 289 289 289 289 288 288 289 288 289 290 290 291 291 291 291 291 292 293 293 293 294 296 297 298 297 297 300 304 304 305 304 303 301 299 296 297 296 295 295 293 293 293 292 292 293 292 292 292 292 293 292
300 299 300 301 299 299 301 292 295 300 300 299 296 296 297 297 292 290 289 289 290 289 289 288 288 287 287 287 286 286 286 286 287 287 287 287 287 287 287 287 288 288 288 290 292 294 294 291 291 292 293 294 295 295 296 297 297 297 299 299 302 303 302 300 300 303 300 299 296 294 292 293 292 293 292 291 291 291 292 291 291 290 291 291 289
303 300 300 299 299 302 300 301 301 299 298 299 298 297 291 291 295 290 291 292 288 287 288 288 288 288 288 286 285 284 285 285 286 287 287 287 286 286 286 287 288 289 290 290 292 293 292 292 291 292 292 291 292 293 294 295 295 297 299 301 302 302 300 298 297 296 296 294 292 291 290 292 291 291 290 290 290 290 291 290 290 289 289 289 287
300 300 300 299 299 300 302 298 298 298 298 296 296 296 291 290 293 291 290 290 289 289 289 288 289 289 288 287 287 285 284 286 287 287 287 287 287 287 287 287 287 288 288 288 289 290 290 290 290 291 291 292 292 292 292 292 292 294 296 296 298 299 297 297 296 294 293 292 291 290 290 290 289 289 289 288 289 289 289 289 288 289 287 286 286
298 299 299 299 297 302 301 301 298 298 297 297 296 294 294 293 289 290 290 290 290 289 289 288 288 288 288 287 288 288 287 287 287 287 287 287 287 286 287 287 288 287 288 288 289 290 290 290 290 291 291 291 291 291 291 291 291 292 292 293 294 295 294 294 293 291 291 290 290 290 289 289 288 288 288 288 287 288 287 288 288 288 287 286 286
299 299 299 300 298 299 303 299 299 298 296 296 294 293 293 291 293 288 288 289 289 289 289 288 288 288 288 288 287 287 287 287 287 287 287 287 286 286 287 287 287 288 287 289 289 289 290 290 290 290 291 290 290 290 291 291 291 291 291 290 290 291 292 292 291 292 290 290 289 289 289 288 288 288 288 287 287 287 286 286 287 286 286 287 286
301 300 298 299 298 298 298 300 299 298 297 295 295 294 293 291 289 290 290 288 289 289 289 289 288 288 288 288 288 287 286 287 287 287 287 286 286 286 286 287 287 287 288 289 288 288 288 289 289 289 290 290 290 290 290 291 291 291 291 291 290 289 290 290 291 291 290 290 289 289 288 288 288 287 287 287 286 286 286 286 286 286 286 286 285
299 299 301 302 301 302 301 299 299 299 296 296 296 293 294 294 291 290 289 290 289 290 289 289 289 288 288 288 287 287 287 287 287 287 287 286 286 286 287 287 288 287 287 288 288 288 288 288 288 289 289 289 289 289 289 290 290 290 290 290 290 289 289 290 290 289 289 289 289 288 288 288 287 287 287 287 287 286 286 286 286 286 285 285 285
298 293 289 293 300 299 299 298 298 296 296 298 296 293 296 293 291 290 290 289 287 287 287 288 289 289 288 287 287 287 287 287 287 287 287 287 286 286 287 287 286 286 287 287 288 289 288 288 288 288 288 287 288 288 289 289 289 289 289 289 288 288 288 288 288 288 288 288 288 288 287 287 287 287 287 286 286 286 286 286 286 286 285 285 285
304 299 298 295 299 298 298 297 298 296 296 296 297 294 293 291 290 290 290 290 289 288 288 288 288 288 288 288 287 287 287 287 287 287 287 287 287 286 285 285 285 285 285 286 286 286 288 288 289 289 289 288 288 287 288 288 288 288 288 288 287 288 288 288 287 287 287 288 287 287 287 287 287 287 287 287 286 286 286 286 286 286 286 286 286
300 300 299 297 298 298 298 297 297 296 292 292 294 294 293 292 291 292 291 290 288 289 287 288 287 288 288 288 288 287 287 287 287 287 287 287 287 286 285 285 284 285 285 285 285 286 286 286 287 288 288 287 287 287 287 287 288 288 287 288 288 288 288 288 287 287 287 287 287 287 287 287 287 287 287 286 286 286 286 286 286 286 286 286 286
302 301 299 298 298 298 299 299 296 291 292 294 297 296 291 292 291 290 291 288 289 288 288 288 287 286 286 286 288 287 287 287 287 287 287 286 286 285 285 285 285 284 284 285 285 285 285 286 286 286 286 286 286 287 287 287 287 287 287 287 287 287 287 287 287 287 287 287 286 287 287 286 287 286 286 286 286 286 286 286 286 286 286 286 286
297 288 287 289 291 297 296 296 294 293 294 293 295 293 290 290 290 290 289 288 288 288 288 288 287 287 286 286 286 287 287 286 285 285 285 285 285 285 285 285 284 284 285 285 285 285 285 285 285 286 286 286 286 286 286 286 286 286 286 286 286 286 286 286 286 286 286 286 286 286 286 286 286 287 287 286 286 286 286 286 286 286 286 286 286
298 298 291 288 293 295 295 293 294 294 292 292 292 292 291 290 290 289 290 289 288 288 288 287 287 287 287 286 286 286 285 285 285 285 285 285 285 285 285 284 284 284 284 284 285 285 285 285 285 285 285 285 285 285 285 285 285 285 286 286 286 285 286 286 286 286 286 286 286 286 286 286 286 286 286 286 286 286 286 286 286 286 286 285 284
301 299 294 291 293 297 297 295 294 293 293 294 293 294 291 290 290 289 290 289 289 288 288 288 288 290 289 286 286 286 286 285 285 285 285 285 285 284 284 284 284 284 284 284 285 285 285 285 285 285 285 285 285 285 285 285 285 285 285 285 285 285 285 286 286 286 286 286 286 286 285 286 286 286 285 285 286 286 286 286 286 285 285 285 284
300 299 299 298 296 298 296 293 292 295 295 292 295 292 290 290 290 290 289 289 289 288 288 288 289 291 288 287 286 286 286 286 285 285 285 285 285 284 284 284 285 284 284 284 284 284 285 285 285 285 285 285 285 285 285 285 285 285 285 285 285 285 285 285 285 286 286 285 285 285 285 285 285 285 285 286 285 285 285 285 285 285 285 285 285
302 302 301 299 300 297 293 296 296 295 293 293 293 292 291 291 291 290 290 289 290 290 288 288 288 288 288 287 286 286 286 286 285 285 285 285 285 285 285 285 285 285 285 285 285 285 285 284 284 285 285 285 285 285 285 285 285 285 285 285 285 285 285 285 285 285 285 285 285 285 285 285 285 285 285 285 285 285 285 285 285 285 285 285 285
301 301 299 300 298 297 295 297 296 295 294 292 292 291 291 292 292 292 291 290 289 289 289 289 289 288 287 288 288 287 286 286 286 286 285 285 285 285 285 285 285 285 285 285 285 285 285 285 284 285 285 285 285 285 285 285 286 285 285 285 285 285 285 285 285 285 285 285 285 285 285 285 285 285 285 285 285 285 285 285 285 285 285 285 285
302 299 299 300 298 300 298 298 296 294 293 294 291 291 293 293 292 291 290 290 290 290 289 289 289 289 288 287 287 287 287 286 286 286 286 286 285 285 285 285 285 285 285 285 285 285 285 285 284 284 284 284 285 285 285 285 285 285 285 285 285 284 284 284 285 285 285 285 285 285 285 285 284 285 285 285 285 285 284 285 285 284 285 285 285
299 298 297 298 299 298 299 300 295 296 294 291 292 292 292 294 294 293 291 290 290 289 289 289 289 288 288 288 287 287 286 287 286 286 286 286 286 286 286 286 286 285 285 285 285 285 285 285 285 284 284 284 284 285 285 285 285 285 285 285 285 285 285 285 285 285 285 285 285 285 285 285 285 285 285 285 285 285 285 285 285 285 285 285 285
299 298 297 297 297 296 296 299 297 296 296 293 292 292 292 293 294 291 290 290 292 290 290 290 289 289 288 288 288 287 287 287 286 286 286 286 286 286 286 286 286 286 286 286 285 285 285 285 285 285 285 284 284 284 285 285 285 285 285 285 285 285 285 285 285 285 285 286 286 285 285 285 285 285 285 285 285 285 285 284 284 284 284 284 284
298 297 297 296 297 296 296 296 295 291 293 294 293 293 292 293 294 293 293 293 293 292 290 291 291 290 288 288 289 288 288 287 287 287 287 287 287 286 286 286 286 286 286 285 286 286 286 285 285 285 285 285 285 285 285 285 285 285 285 285 285 285 285 285 285 285 285 286 286 285 285 285 285 285 285 285 284 284 284 284 284 284 284 284 284
297 297 296 296 296 296 295 295 295 295 294 294 293 293 292 293 293 293 294 294 294 294 294 292 291 291 290 291 290 289 288 288 287 287 287 287 287 287 286 286 286 286 286 285 285 286 286 286 285 286 285 285 285 285 285 285 285 285 285 285 285 285 285 285 285 285 285 286 285 285 285 285 285 285 285 285 284 284 284 284 284 284 284 284 284
296 296 296 295 295 295 295 295 295 295 293 293 293 292 291 291 292 291 291 292 293 294 294 294 293 293 292 291 290 290 289 288 288 287 288 288 288 287 287 286 286 286 286 285 285 286 286 286 286 286 286 286 286 285 285 285 285 285 285 285 284 284 284 284 284 285 285 285 285 285 285 285 285 285 285 285 284 284 284 284 284 284 284 284 284
294 295 294 294 294 294 294 293 293 293 293 292 292 291 290 290 290 290 289 290 290 292 293 294 294 293 293 292 291 291 291 290 289 288 288 287 288 288 287 287 286 286 286 286 286 286 286 286 286 286 286 285 285 285 285 285 285 285 284 284 284 284 284 284 285 284 285 285 285 285 285 285 285 285 284 284 284 284 284 284 284 284 284 283 284
Wind_Speed
10 9 9 9 9 9 8 7 7 6 5 5 4 4 3 3 3 3 2 3 4 5 5 4 4 4 5 5 6 6 5 5 4 4 4 6 7 7 8 10 12 11 11 11 10 11 11 12 11 10 7 9 8 8 9 9 9 9 9 9 11 10 11 11 12 12 11 4 2 5 4 3 4 8 11 10 7 6 7 7 11 10 10 8 7
10 10 9 8 9 9 8 7 6 5 5 5 5 4 3 3 3 3 4 5 5 4 5 5 5 6 6 6 6 6 6 6 6 5 6 6 8 7 7 8 11 12 11 12 11 10 10 11 12 11 11 10 9 11 10 10 11 11 12 10 10 11 11 12 12 11 13 7 4 2 4 8 4 4 11 11 9 8 8 7 7 7 11 6 6
11 9 9 9 9 8 8 7 6 6 6 5 5 5 4 4 4 4 5 5 5 5 5 4 6 6 6 6 6 6 6 6 5 5 7 8 9 8 8 10 10 11 11 12 12 12 12 11 12 11 9 10 8 10 10 11 10 11 13 11 11 12 12 13 11 12 13 11 8 6 4 6 9 8 10 11 10 10 10 9 8 6 5 7 6
10 10 9 9 9 8 8 7 7 7 6 5 5 4 4 4 4 4 5 5 5 4 4 5 6 6 7 7 7 7 7 7 7 7 9 9 10 11 10 10 11 11 11 12 13 12 12 12 12 12 12 11 10 8 9 10 10 10 11 10 10 11 11 11 13 12 10 11 10 7 6 9 7 8 9 10 12 10 10 9 8 8 7 6 7
11 12 11 10 10 9 8 7 7 7 6 5 5 5 4 4 3 5 4 5 5 4 5 4 5 6 7 8 8 8 8 8 9 9 9 9 10 10 11 11 11 12 12 12 12 13 13 13 13 12 12 12 11 9 8 9 10 10 10 10 10 11 10 11 12 12 12 12 8 5 6 8 11 7 10 12 10 10 9 9 9 9 8 7 5
11 10 10 10 10 9 8 7 7 6 6 5 4 4 3 4 3 3 4 5 5 5 6 6 6 7 7 8 9 10 10 10 10 11 10 10 10 10 10 10 11 12 12 12 13 13 13 14 13 13 13 13 11 10 11 11 10 11 12 11 12 11 12 11 10 11 14 12 10 5 5 6 5 3 9 11 13 11 9 8 7 8 9 8 5
10 10 10 10 10 9 8 7 6 5 5 4 4 3 3 3 3 4 3 4 4 6 6 7 6 6 8 8 9 9 9 10 10 11 11 11 11 11 11 11 11 11 12 13 13 13 14 14 13 13 13 13 14 12 11 12 9 8 9 11 11 11 11 10 11 14 13 12 10 9 8 7 9 9 10 10 10 12 13 11 8 6 6 9 8
11 10 10 10 9 9 8 7 6 5 4 4 3 3 2 3 3 2 2 4 5 6 7 7 7 7 8 8 9 8 9 9 10 10 11 11 10 11 11 11 11 12 12 13 13 13 13 14 14 14 14 13 13 14 13 11 10 10 9 8 10 11 12 10 7 5 7 10 11 9 8 10 7 3 7 10 9 7 9 11 14 12 10 7 7
10 10 10 9 8 8 6 6 5 4 4 3 3 3 3 2 1 2 3 4 5 6 6 7 8 9 9 9 10 9 8 9 8 9 10 11 11 11 11 12 12 13 12 13 13 13 13 13 14 15 16 18 19 17 16 14 9 9 8 5 7 8 10 10 10 11 10 10 10 8 9 10 9 11 11 11 13 15 12 11 10 10 10 9 8
10 10 9 8 7 6 6 4 4 4 3 4 4 4 2 2 2 4 5 5 5 5 6 6 8 9 10 10 10 9 8 7 9 12 12 11 11 12 11 11 11 11 12 12 13 13 14 13 14 19 20 21 21 20 19 20 21 15 12 11 10 9 7 8 10 11 12 13 12 11 12 12 13 15 14 13 10 9 11 12 11 10 9 7 5
9 9 9 8 8 7 6 6 5 6 5 5 3 2 4 4 4 5 4 4 5 5 3 5 7 8 10 10 11 10 9 8 12 12 11 12 10 11 12 13 13 14 14 14 14 13 13 14 14 16 18 18 19 22 23 22 21 24 23 19 15 12 11 10 9 10 12 12 10 10 13 14 14 14 14 13 12 15 15 12 11 12 13 14 13
9 9 8 8 8 8 6 6 6 5 5 4 4 4 3 2 3 4 4 5 5 3 3 5 7 8 8 10 11 10 9 11 14 13 13 14 12 11 12 12 12 13 14 14 14 14 15 14 13 12 13 15 15 15 18 21 23 23 24 24 21 20 17 14 12 9 10 11 10 13 12 10 13 13 13 12 12 12 13 13 14 16 14 13 11
9 8 8 8 8 7 7 6 6 4 4 3 3 3 2 3 5 5 5 5 3 3 4 6 7 8 9 11 11 11 11 12 13 14 14 12 12 11 8 11 14 14 14 15 15 15 14 14 14 13 13 18 16 15 16 16 16 22 25 26 27 23 21 20 18 16 11 11 13 13 12 11 12 13 14 16 14 15 13 12 12 12 13 14 13
8 8 8 7 7 6 5 5 4 3 3 3 3 3 3 4 4 4 5 4 3 3 3 6 8 9 9 10 10 10 11 12 14 15 15 16 16 11 9 10 13 14 15 15 14 15 16 15 14 15 15 16 16 16 14 14 16 14 14 17 18 22 24 24 22 21 19 15 12 12 12 12 13 14 15 15 17 17 17 18 16 14 13 15 11
8 8 7 6 5 5 5 4 3 3 4 3 2 3 4 4 4 5 3 1 3 4 5 6 8 9 10 10 11 11 10 14 15 17 17 18 19 18 13 12 13 14 15 15 16 16 17 16 17 16 16 16 15 17 15 14 13 14 15 14 16 17 16 16 16 14 13 13 14 13 11 11 14 15 16 15 19 19 20 21 21 19 13 6 5
9 8 7 5 4 4 3 2 3 3 3 3 4 4 4 4 4 3 2 1 2 3 5 6 8 10 10 10 10 11 10 12 12 12 13 14 16 12 13 13 14 15 15 16 16 16 16 17 17 17 17 17 19 21 20 16 15 15 13 14 14 13 14 16 18 17 16 15 13 13 9 8 11 12 16 17 15 11 7 5 7 8 11 11 9
9 8 7 7 5 3 3 3 3 3 3 4 4 4 4 3 3 2 3 3 4 5 5 7 8 10 11 10 11 12 11 11 12 13 14 15 13 12 12 12 14 16 17 16 16 16 17 17 17 16 17 17 18 19 21 20 19 17 17 15 14 13 13 12 17 21 22 22 21 19 16 16 14 10 16 18 16 14 12 12 13 13 12 11 8
7 7 6 4 4 3 3 3 3 3 3 4 3 2 2 3 3 2 2 3 4 5 6 8 9 10 11 11 11 12 12 12 15 15 16 17 16 14 12 13 15 15 15 15 15 15 17 23 24 19 18 17 17 18 20 17 17 20 18 17 16 16 14 5 0 4 16 23 24 20 19 18 16 18 20 21 19 14 13 15 16 14 13 12 13
6 8 8 5 5 3 3 3 2 2 2 2 2 2 3 3 2 2 2 3 4 5 7 8 9 9 10 11 14 15 13 13 14 15 16 16 15 13 12 13 15 15 14 16 15 15 16 17 23 22 20 19 19 18 19 18 17 18 17 16 16 17 14 5 7 5 4 5 6 11 10 13 15 16 18 24 24 21 19 17 13 14 14 13 10
5 7 9 6 2 1 2 2 3 3 2 2 2 2 2 2 3 2 2 2 4 6 8 8 11 11 11 12 11 11 12 12 13 16 17 18 19 16 13 14 16 16 15 14 14 15 15 15 17 21 23 23 23 23 22 21 19 17 12 12 14 13 7 6 9 10 9 12 10 11 13 11 9 10 11 15 17 15 11 7 13 15 15 13 13
9 7 4 4 3 4 3 1 1 1 1 2 2 2 2 3 2 3 3 3 4 5 8 9 10 11 11 11 11 11 11 13 13 16 18 19 20 19 15 15 15 15 14 15 14 14 14 14 13 17 20 20 22 24 25 25 24 20 18 12 15 14 13 7 9 13 9 8 9 9 8 8 9 10 11 12 12 12 8 9 13 12 12 13 11
7 6 3 3 3 1 1 0 0 0 1 2 2 3 2 2 3 1 1 3 5 7 8 9 9 10 10 11 11 12 13 16 15 17 19 20 21 23 17 15 15 14 15 14 14 14 15 14 14 16 20 22 20 22 24 24 27 20 23 26 22 20 15 13 8 6 7 8 7 7 8 9 8 8 9 10 9 8 8 10 9 6 6 10 14
6 3 3 3 1 1 2 2 2 1 1 2 3 3 3 2 1 0 1 2 4 6 8 9 10 11 12 11 10 11 12 13 17 16 18 20 21 22 23 20 20 16 15 16 15 15 14 15 16 20 22 22 21 21 21 25 24 21 27 27 25 25 16 12 8 8 7 9 10 9 8 10 11 10 11 9 6 5 5 5 5 5 5 5 4
3 3 2 1 2 2 1 1 0 1 2 1 2 3 3 1 2 2 2 2 3 6 6 7 9 10 12 12 11 11 12 12 14 18 17 21 22 23 22 22 22 16 16 15 15 16 15 16 16 20 22 23 23 21 20 22 19 23 24 26 27 20 11 10 8 7 7 7 8 9 8 6 7 11 10 8 8 9 8 7 7 6 7 7 8
2 2 3 3 1 1 1 0 1 1 2 2 3 3 2 0 1 1 1 2 3 6 7 7 9 10 11 12 12 12 12 12 13 15 20 21 22 22 21 22 22 23 18 16 17 16 17 21 21 22 23 22 22 22 21 23 25 24 24 25 20 10 12 11 9 7 9 9 9 8 8 8 7 7 8 10 10 10 10 9 9 9 9 9 8
4 3 2 1 2 1 3 1 3 3 3 3 3 3 1 1 1 0 1 3 5 5 7 8 9 10 11 10 11 12 12 14 15 14 14 17 17 18 21 22 24 25 25 21 24 24 23 24 25 24 22 20 17 15 13 14 18 21 24 23 11 11 11 11 10 10 9 9 10 10 9 8 8 8 9 10 10 9 10 10 10 9 10 11 10
5 1 1 2 3 1 0 2 1 2 2 3 3 3 2 1 2 2 1 3 4 5 7 8 9 9 9 10 11 11 12 13 13 13 12 12 12 13 15 16 20 21 17 16 17 17 21 22 19 20 18 21 19 14 12 14 14 14 13 13 12 11 12 12 12 11 10 9 8 8 8 8 9 10 10 10 9 7 8 10 10 9 9 9 11
4 4 3 2 3 2 1 6 4 2 2 3 3 3 3 2 2 0 1 1 3 5 6 8 8 9 10 10 11 11 12 11 12 12 13 13 14 15 15 14 14 12 14 14 13 14 14 15 19 16 15 14 13 10 11 11 11 12 11 11 12 12 13 15 14 9 8 10 10 10 10 10 10 9 9 9 9 8 8 10 11 10 9 10 10
1 3 3 5 2 1 2 2 1 2 3 3 3 3 2 2 2 2 3 1 0 3 6 7 7 7 8 10 13 12 11 12 12 14 17 20 17 13 13 13 12 13 14 18 15 12 10 10 10 11 12 11 10 10 10 10 9 10 13 11 10 10 9 7 7 8 10 11 12 12 11 10 9 8 9 9 9 9 8 10 10 12 7 6 9
4 3 2 4 2 1 2 3 3 3 3 4 5 5 5 6 6 1 1 5 5 7 4 5 7 8 8 9 9 11 12 13 20 23 23 23 23 23 22 22 21 17 18 22 17 10 7 7 7 8 9 8 9 9 9 7 6 6 6 11 11 10 9 9 10 10 9 10 12 12 11 11 11 10 10 10 9 8 8 10 10 10 12 10 11
6 4 3 4 2 1 0 2 3 3 4 4 4 5 4 4 4 7 8 4 2 4 6 8 11 11 10 11 12 16 18 21 22 22 23 23 23 22 21 18 21 22 19 12 10 7 6 7 7 7 7 7 8 8 7 7 6 6 5 5 7 11 10 10 10 9 9 10 10 11 12 12 12 11 11 11 11 11 9 8 9 9 11 11 11
1 4 3 2 6 4 1 3 3 4 4 5 5 5 7 5 1 5 6 6 5 11 11 10 10 12 15 15 14 12 15 18 21 21 22 23 21 21 20 16 17 20 19 6 2 3 4 5 5 6 6 7 6 5 6 6 5 6 7 7 5 6 11 11 11 12 11 11 11 11 11 11 11 10 10 10 11 10 10 9 9 10 9 9 10
3 4 5 2 2 3 3 2 3 3 3 5 3 4 4 4 3 3 6 3 9 10 10 9 11 14 16 16 18 17 18 19 21 21 22 22 21 20 19 17 12 15 15 7 3 3 2 1 1 3 5 5 5 5 5 6 7 7 8 9 9 6 5 9 13 11 11 12 12 12 11 11 11 10 9 10 11 12 10 9 8 9 10 10 10
6 3 1 1 1 1 2 3 2 2 4 3 2 5 1 2 4 3 4 1 1 3 5 9 11 14 14 16 17 19 20 20 20 20 20 21 20 19 17 12 11 11 9 6 6 4 3 4 4 3 1 1 3 4 4 4 4 5 5 6 8 8 9 7 8 10 10 11 11 11 11 12 12 12 11 9 9 9 10 9 9 10 9 10 11
5 3 6 4 2 4 5 5 5 5 3 1 3 4 3 4 4 5 5 2 2 4 6 8 10 13 14 13 16 20 20 20 19 18 19 19 18 19 14 7 8 9 8 7 6 6 5 4 4 4 4 3 3 1 1 4 4 5 7 8 8 9 10 9 7 8 11 10 10 11 11 12 11 10 12 13 12 11 11 11 10 9 10 10 10
0 4 5 3 1 5 6 7 4 3 4 3 2 3 4 5 5 5 4 2 1 3 4 6 8 11 15 14 17 19 20 19 17 17 18 18 17 15 9 8 7 7 7 8 7 5 5 5 4 4 5 5 4 4 3 3 3 4 4 7 10 10 10 10 10 9 9 10 10 11 11 10 10 11 9 9 11 11 10 10 10 8 8 8 8
3 2 5 6 4 3 3 4 5 6 7 4 1 5 5 5 4 4 4 3 1 1 3 5 8 10 10 8 14 16 19 16 16 15 16 16 17 9 7 7 7 7 8 8 8 7 6 5 4 5 5 5 5 5 5 5 5 5 6 6 6 8 9 10 11 11 11 11 10 11 10 11 11 10 10 10 10 10 10 9 9 8 6 8 10
3 2 2 5 4 4 2 2 3 6 7 3 2 3 5 4 4 5 2 3 1 1 3 4 7 9 10 11 14 12 12 12 13 11 10 10 10 8 8 8 7 7 7 8 7 7 7 7 6 6 5 5 6 5 6 6 6 5 5 7 7 6 10 12 12 11 10 11 11 11 10 10 9 8 8 11 12 10 9 10 10 10 9 11 9
5 9 10 8 4 2 3 3 4 6 6 5 3 5 3 3 3 3 1 3 3 2 1 3 4 6 8 8 10 12 11 10 10 11 11 10 9 8 8 8 8 8 8 7 7 7 7 7 6 7 7 7 6 6 6 6 6 6 5 6 8 9 9 8 10 10 10 10 10 9 9 9 8 7 9 9 10 11 11 10 8 9 9 9 9
5 2 4 2 0 1 1 2 4 5 7 5 4 4 4 4 3 3 1 2 3 2 1 3 4 4 5 7 9 10 10 11 10 10 10 10 9 9 9 8 8 7 7 8 8 7 7 7 7 7 8 8 8 7 7 7 6 6 7 7 7 8 8 8 9 10 10 9 9 9 9 8 8 9 8 8 9 10 11 9 7 7 9 10 11
1 1 2 3 2 1 1 5 6 6 5 2 3 2 2 2 2 4 1 1 1 2 2 2 3 4 3 6 13 14 8 9 9 9 9 9 9 9 8 8 8 8 8 7 7 7 7 7 7 7 8 7 7 8 7 7 7 7 7 7 8 8 8 8 8 9 9 10 9 9 8 8 9 10 10 8 9 9 8 6 7 8 10 11 11
5 6 5 2 2 1 4 6 4 6 7 3 2 0 3 1 2 2 2 1 0 0 1 2 2 2 3 8 9 13 9 8 8 9 9 9 8 8 8 8 8 8 7 7 7 7 7 8 8 8 8 8 8 8 8 8 8 8 8 8 9 8 8 7 7 8 10 10 10 10 9 9 10 10 9 9 9 8 8 7 7 8 10 10 10
1 1 1 2 2 3 4 1 1 3 4 5 1 2 2 3 1 1 2 3 0 2 1 1 2 2 3 3 6 8 7 7 8 8 8 8 8 8 8 8 8 8 8 7 7 7 8 8 7 8 9 9 9 8 8 8 8 8 9 9 9 9 9 8 8 9 9 10 11 11 12 11 10 9 9 8 8 8 8 9 8 8 8 9 9
1 2 3 2 4 3 1 0 2 4 4 6 5 3 3 4 0 0 2 2 1 2 3 1 0 1 2 2 3 3 4 6 7 7 8 8 8 8 8 7 8 8 8 8 8 8 8 9 9 10 10 10 10 10 9 8 8 9 9 9 9 9 9 8 8 8 9 10 11 11 11 10 10 9 10 8 8 9 8 8 8 8 8 7 8
2 2 1 1 1 1 0 1 3 4 6 2 4 3 3 3 2 1 2 2 0 2 3 3 1 1 2 2 2 2 4 4 6 6 7 7 8 8 7 7 7 8 8 8 8 8 8 9 10 10 11 10 10 10 10 10 9 9 9 9 10 10 9 9 8 8 8 10 11 11 10 10 10 9 9 8 8 8 8 7 7 8 8 8 8
4 4 5 4 2 2 1 0 2 3 1 4 3 3 4 3 4 1 2 3 1 2 3 3 2 2 2 2 2 2 2 3 3 4 5 5 6 7 7 7 7 7 7 7 8 9 9 9 10 11 10 10 11 10 10 10 10 10 11 10 11 10 9 9 9 10 10 9 10 10 10 10 9 9 9 8 7 6 6 6 6 6 7 7 7
7 7 7 6 6 5 5 2 2 2 2 2 1 3 4 4 5 6 4 6 6 3 3 3 2 2 3 2 3 2 3 3 3 3 4 5 5 5 6 7 7 7 7 7 8 8 9 10 10 11 11 10 11 12 10 10 10 10 10 10 10 11 9 9 9 9 9 9 9 9 9 9 9 8 9 7 6 6 6 6 7 8 7 7 7
6 6 7 7 8 7 7 7 9 7 6 6 3 6 8 9 9 8 9 9 9 7 4 3 3 2 3 3 2 3 3 3 3 4 3 4 4 5 6 6 7 6 6 7 7 7 7 8 9 9 10 11 11 10 10 10 10 10 10 10 10 11 12 12 9 10 9 9 9 9 9 8 8 7 7 6 6 6 7 7 6 6 7 7 7
8 7 7 7 7 7 7 8 7 8 8 8 9 10 9 9 8 9 9 9 9 10 9 6 4 4 4 3 2 3 3 4 3 3 3 4 4 4 5 6 7 7 6 7 7 7 8 8 8 8 8 9 9 10 9 9 9 9 10 9 13 18 17 15 10 9 11 9 8 8 8 8 8 7 6 6 6 5 6 5 6 6 6 6 7
8 8 7 8 7 7 7 7 8 7 7 8 8 7 8 8 9 10 10 10 10 10 9 9 10 8 6 7 7 5 4 4 4 4 4 3 4 4 4 5 6 6 6 6 6 6 6 6 7 7 8 8 9 9 9 9 8 9 8 10 14 14 14 13 12 12 9 7 7 6 6 7 6 5 4 5 5 6 6 6 5 5 6 7 7
8 8 8 8 8 8 8 8 8 8 8 7 7 6 7 7 7 9 9 10 10 10 10 10 10 10 9 8 8 7 5 5 5 4 3 3 3 5 5 4 5 5 5 6 6 6 6 6 6 7 7 7 8 8 7 7 7 8 9 11 11 10 10 8 6 5 9 7 5 5 5 6 6 6 5 5 5 6 7 7 6 6 6 6 5
Wind_Direction
169 170 169 170 171 178 181 181 185 182 184 187 194 206 210 215 222 221 230 232 235 238 239 257 271 266 271 276 283 286 287 284 285 277 279 283 274 268 272 278 278 278 281 280 273 274 277 276 275 270 245 226 224 226 229 231 230 229 225 220 218 212 210 216 228 241 259 219 195 238 128 336 271 131 129 140 128 94 97 120 141 153 151 124 136
172 170 169 173 175 178 179 181 182 184 185 183 200 207 213 223 221 230 237 243 242 261 271 268 260 262 264 264 265 275 275 278 284 289 274 265 272 280 276 270 271 274 277 276 279 280 280 281 278 273 273 255 225 224 221 223 226 228 232 222 221 219 208 215 220 228 241 238 198 131 126 170 230 164 144 147 129 120 119 126 147 148 155 132 124
173 169 170 173 175 176 174 179 178 185 185 191 202 208 215 220 219 227 237 248 250 247 253 264 274 276 275 272 270 266 273 279 279 277 277 276 274 270 270 271 269 270 272 274 274 275 277 278 281 282 270 267 250 228 226 226 224 227 232 228 225 225 215 210 213 222 229 234 207 199 168 166 194 178 162 151 137 138 136 147 147 142 127 131 127
171 171 170 171 169 174 177 176 180 186 193 198 207 212 216 222 227 236 245 255 267 270 264 264 267 272 279 281 284 285 281 279 276 269 270 270 271 274 274 272 268 263 263 267 269 269 267 271 273 280 289 285 274 260 229 223 222 225 229 227 228 230 237 224 217 221 217 226 225 187 186 163 202 169 162 147 139 142 147 147 143 140 138 129 126
172 174 175 171 170 177 179 181 183 185 191 195 209 212 220 226 232 246 254 262 272 280 277 274 270 270 273 277 275 273 275 275 273 271 265 263 264 263 262 265 270 272 268 267 269 269 269 265 267 271 274 278 285 281 267 231 221 225 224 225 228 233 230 222 219 220 221 218 219 184 167 178 186 187 164 148 140 138 146 154 153 145 139 134 124
173 173 171 171 171 178 179 184 186 187 193 200 211 218 224 232 241 253 264 271 274 274 278 277 278 277 273 272 275 279 277 274 272 271 272 271 271 270 270 267 264 267 269 268 264 264 267 268 265 261 264 265 265 272 280 272 243 224 223 225 228 226 226 224 224 227 219 222 206 167 173 163 167 126 163 153 149 144 146 144 139 143 140 133 118
173 171 167 170 172 179 182 183 186 188 189 196 200 209 217 230 248 252 260 280 287 290 284 284 287 290 290 288 281 274 275 273 274 274 274 272 268 268 268 268 269 267 266 267 267 265 264 267 271 269 264 261 264 262 265 274 274 263 237 229 222 230 239 231 213 219 218 216 210 187 176 179 167 166 163 163 153 151 150 145 145 145 145 152 143
170 169 166 168 174 176 180 182 182 185 183 186 199 203 225 236 235 261 289 281 280 279 287 295 292 289 285 282 284 286 282 283 281 282 283 279 274 268 267 266 265 265 265 266 268 269 268 267 267 268 267 267 262 263 260 260 270 273 265 241 232 227 230 237 247 264 236 215 205 192 178 180 148 141 152 159 152 148 162 157 156 164 173 170 168
167 170 168 167 171 172 169 176 171 175 179 192 197 210 218 225 268 283 273 276 275 280 290 290 289 290 292 290 285 279 275 268 265 266 266 268 269 271 267 264 264 265 265 264 264 263 264 266 267 266 268 269 271 269 268 271 271 272 272 288 281 251 239 222 229 213 226 231 222 185 184 183 171 161 171 183 182 172 165 159 171 167 152 150 162
167 171 167 165 161 169 166 161 171 173 184 195 202 205 207 233 247 249 250 255 266 280 281 283 292 294 291 289 286 284 279 276 271 265 263 269 274 275 277 280 282 280 274 269 264 263 263 263 264 265 266 269 273 275 273 270 265 256 259 264 263 271 267 254 231 227 218 219 214 197 196 194 178 177 179 186 176 140 148 165 160 153 142 147 153
170 167 169 164 164 172 171 171 177 187 194 200 190 199 227 223 231 249 266 270 275 277 282 302 303 300 296 294 290 286 284 281 278 274 272 267 268 270 268 267 263 269 277 284 286 281 271 264 263 264 264 262 261 263 266 264 261 265 261 251 250 247 260 258 258 244 230 224 213 207 201 194 182 177 178 175 175 170 172 164 156 160 168 165 181
168 169 167 163 165 175 173 179 186 195 192 195 200 225 234 249 263 270 273 274 269 272 304 297 290 289 286 287 286 285 284 285 286 285 283 281 273 270 271 269 266 261 259 261 268 275 276 277 272 268 264 264 266 263 258 252 253 255 259 261 252 246 232 232 247 257 242 229 209 211 212 196 180 179 176 176 176 169 176 175 171 171 173 185 178
171 166 170 164 167 172 174 184 190 189 189 205 222 233 243 246 256 261 263 274 286 299 304 299 293 291 289 287 286 286 286 287 290 292 293 290 286 277 267 268 270 265 261 259 259 263 269 271 273 272 271 266 260 258 262 268 254 241 244 253 258 253 248 234 224 234 251 245 229 220 213 190 181 195 187 180 169 171 170 177 181 184 187 187 187
171 165 168 168 165 172 177 179 191 186 196 216 226 231 238 248 257 258 266 268 292 321 304 297 294 289 286 285 283 283 280 286 288 290 291 291 289 281 271 267 271 268 267 264 260 260 260 263 266 268 268 271 268 264 260 255 260 257 241 239 246 253 249 246 237 227 229 237 239 238 216 197 194 188 185 171 170 176 176 185 183 180 185 199 186
169 162 167 164 158 161 181 180 188 200 214 221 227 248 257 259 256 266 275 9 341 303 298 299 294 288 286 282 279 275 272 268 265 266 267 268 271 276 274 270 268 267 267 265 263 261 261 260 261 262 264 264 266 272 271 265 259 254 251 240 235 239 245 243 237 227 221 224 230 234 233 206 192 183 181 184 185 185 184 179 177 184 179 129 97
170 154 150 145 156 161 187 186 191 218 224 237 236 237 248 251 261 269 287 309 292 310 305 296 291 291 289 290 288 285 284 282 279 278 275 271 269 269 271 267 267 268 267 264 263 261 260 258 258 257 256 258 261 267 274 280 283 284 277 262 246 237 236 234 231 224 219 219 220 221 213 189 188 188 183 185 186 175 162 166 150 144 152 171 167
168 153 166 159 161 177 192 207 216 221 235 244 244 245 241 256 299 340 339 340 321 309 303 297 301 297 295 291 290 290 291 288 288 289 291 290 285 280 272 270 267 268 266 266 264 262 260 258 258 258 255 254 255 259 267 277 275 273 272 276 278 261 243 237 226 220 216 214 211 212 195 183 190 181 179 175 174 165 158 163 173 168 164 170 165
162 167 147 160 162 165 206 226 236 229 239 248 265 293 340 342 312 352 336 329 321 321 312 304 298 297 295 296 295 295 295 295 295 294 292 291 286 284 274 271 270 268 268 266 266 263 259 256 256 257 256 254 250 252 257 263 267 268 271 272 271 272 260 239 310 257 227 213 206 195 183 185 169 174 181 178 166 157 161 177 180 170 176 169 170
164 158 167 169 130 183 195 228 253 282 285 288 324 329 326 308 305 304 338 355 331 317 310 306 301 298 299 299 301 297 293 294 291 290 286 282 282 281 272 266 269 267 267 267 262 260 259 255 251 250 251 254 252 249 252 256 261 265 271 270 266 265 267 185 193 172 163 171 198 190 190 174 165 170 178 175 172 179 190 187 161 171 176 175 157
149 72 74 86 107 208 190 219 226 235 276 333 334 312 302 307 295 336 30 342 324 324 316 307 303 302 300 298 295 293 294 294 294 291 292 292 288 286 279 270 267 267 263 262 262 256 256 254 250 245 245 245 246 246 248 248 256 263 266 268 274 267 283 208 206 188 189 193 183 181 181 179 165 173 170 178 182 186 185 169 178 180 176 164 164
87 94 92 111 184 210 211 205 23 25 347 321 316 305 292 287 5 29 357 330 324 318 306 301 298 299 299 299 298 296 295 294 293 293 293 292 290 289 286 276 268 264 262 258 255 257 254 252 253 249 244 239 235 237 238 242 246 254 257 248 250 271 312 266 226 200 193 186 171 169 160 162 167 163 166 176 177 177 174 171 184 176 164 164 165
85 98 130 189 203 192 58 50 57 346 282 266 268 265 265 282 110 84 353 326 328 317 310 304 301 298 298 296 293 294 296 296 296 294 290 287 284 281 283 281 274 267 264 257 255 253 252 254 254 250 247 242 234 230 232 235 239 240 250 252 257 263 271 270 245 207 160 159 147 146 152 148 151 154 161 166 162 163 162 160 169 172 174 176 175
114 148 172 190 165 213 185 200 202 217 233 251 256 273 270 264 98 76 353 345 324 320 314 312 307 304 300 295 294 294 294 292 289 289 288 285 284 283 282 283 280 272 266 262 258 256 253 253 252 250 247 244 237 230 228 232 235 237 242 249 251 251 252 253 238 204 172 163 157 154 162 159 154 160 160 150 133 129 122 115 112 111 116 102 84
126 136 128 213 208 207 235 228 78 237 274 295 299 280 271 347 56 17 7 343 321 301 296 295 295 297 299 298 296 292 290 291 290 289 289 287 285 284 283 282 280 275 271 265 262 255 252 249 250 251 247 241 237 234 233 234 235 237 237 240 243 240 229 240 219 194 157 149 149 147 154 154 157 151 153 139 133 123 109 96 82 80 90 92 99
109 174 202 193 125 219 141 34 296 343 353 321 287 269 260 82 341 35 356 298 293 292 294 299 303 305 301 297 295 293 294 294 293 290 288 286 285 285 284 282 280 277 272 267 259 257 251 250 248 248 247 240 233 233 235 236 234 233 234 235 234 214 216 213 210 184 167 166 162 148 146 150 142 132 119 118 112 103 101 93 92 89 83 78 77
156 228 126 79 122 316 40 22 25 356 280 265 283 295 318 51 317 200 278 302 308 311 309 308 302 299 300 298 296 298 298 297 295 294 292 291 291 289 289 287 282 277 270 265 262 258 253 248 245 243 245 241 236 238 241 242 239 235 236 235 217 212 201 197 191 185 173 167 155 150 141 122 114 119 115 117 121 130 127 124 123 119 118 114 103
148 169 140 182 114 49 105 69 307 255 343 4 325 314 326 353 35 32 13 323 323 308 302 305 301 297 298 298 299 301 298 296 295 295 295 295 296 294 290 286 280 276 270 264 259 254 250 246 240 235 234 238 238 245 257 257 252 241 235 221 209 202 193 188 187 182 173 152 137 122 120 113 111 116 127 123 118 115 120 125 119 121 115 115 114
177 146 160 102 50 19 13 172 207 14 359 333 344 345 351 30 359 14 73 30 315 302 306 305 304 302 301 302 301 298 296 295 295 298 301 300 297 293 290 286 282 274 271 265 259 254 250 240 232 228 233 241 247 254 257 261 255 243 222 203 199 190 185 183 185 181 159 142 125 121 117 127 128 129 123 121 121 124 130 125 127 125 128 128 119
92 163 182 108 104 21 6 328 56 33 348 356 3 7 25 345 24 76 106 77 278 295 317 306 299 297 298 301 302 297 295 295 297 300 297 297 296 295 296 292 289 283 268 264 264 258 239 226 211 215 219 229 237 242 248 245 240 218 197 186 180 170 156 130 132 131 140 135 138 138 138 130 125 121 124 120 124 128 127 116 119 123 123 114 123
209 180 174 127 93 39 13 309 36 30 2 13 3 7 89 60 123 133 112 159 226 247 246 296 299 303 299 296 295 298 298 296 299 301 303 304 303 300 296 294 299 297 280 265 258 248 215 208 207 208 210 212 220 224 223 210 206 196 187 165 156 154 147 141 136 140 140 141 137 136 136 132 131 137 133 132 125 121 129 131 135 133 130 133 130
206 161 121 93 107 135 246 344 32 16 27 36 8 354 323 141 63 143 159 196 237 18 356 293 286 283 294 305 302 294 292 298 304 308 309 311 309 307 303 307 316 319 310 283 247 209 203 193 195 191 200 201 206 210 197 189 181 158 145 146 154 150 144 141 142 136 137 135 137 134 137 137 139 142 141 140 136 132 130 124 123 125 129 134 129
85 68 78 92 177 216 8 26 12 31 40 38 21 341 329 17 152 204 197 187 70 29 5 316 301 303 312 312 312 309 308 309 310 312 314 314 313 309 308 310 319 329 322 296 215 204 192 188 182 188 184 192 194 183 176 168 159 142 129 117 115 134 143 143 146 142 139 136 135 136 135 136 138 141 138 137 134 133 133 134 133 130 126 124 129
73 67 58 31 351 334 8 23 30 34 55 42 15 320 336 16 340 356 200 131 63 34 2 325 313 319 318 318 315 314 314 316 318 319 319 317 317 316 315 310 320 340 345 355 16 45 46 59 153 165 177 179 173 172 174 163 155 150 143 137 134 127 123 139 143 139 142 142 140 140 138 134 136 134 135 137 139 138 138 133 136 135 136 136 139
75 87 80 328 39 328 358 39 22 33 69 55 0 313 308 24 357 330 314 327 332 10 3 344 327 323 322 322 321 322 325 325 323 324 324 323 322 325 324 308 319 356 14 3 359 25 48 70 58 46 19 89 147 165 158 151 142 135 121 116 124 121 118 120 126 132 131 133 134 133 133 137 140 141 138 137 135 133 134 138 141 142 147 147 146
139 158 196 209 308 5 28 1 12 42 61 338 334 317 315 40 18 347 327 7 336 338 339 344 341 334 329 328 328 330 329 327 326 330 329 330 335 333 325 332 352 359 10 16 14 20 27 45 63 57 57 50 38 41 99 127 128 131 133 126 121 124 127 126 124 128 130 131 131 136 138 140 143 142 144 145 147 148 150 150 145 146 151 153 153
358 207 189 187 308 22 18 1 9 33 342 321 298 281 22 45 11 342 329 39 357 334 331 345 339 331 327 326 333 333 331 330 333 336 337 339 342 343 354 353 353 2 6 7 4 11 35 35 48 60 65 63 58 62 67 64 73 99 116 131 134 137 135 129 128 125 124 127 128 130 131 135 140 141 141 140 142 145 144 141 132 139 150 156 150
159 312 56 79 68 51 34 356 351 344 324 293 359 19 37 21 358 335 338 5 1 327 329 332 341 339 340 340 339 335 331 331 338 335 342 345 346 349 356 354 359 1 13 13 8 359 26 28 40 55 61 66 72 76 71 72 76 91 100 105 117 126 131 132 131 133 132 129 128 132 135 138 142 147 145 140 137 135 132 129 125 137 153 149 134
359 336 67 49 59 50 7 351 345 333 325 317 27 46 55 9 338 319 12 355 345 329 322 329 347 348 345 345 341 343 332 336 340 345 346 352 353 355 0 3 7 15 7 12 13 21 30 27 33 45 49 63 71 74 83 85 82 86 103 115 111 102 114 116 117 118 121 126 130 133 133 135 140 138 137 136 137 137 133 133 136 148 146 134 118
76 84 82 84 63 20 336 351 340 331 318 306 31 60 52 348 307 323 49 1 343 339 322 318 331 348 350 341 341 340 337 352 358 0 358 357 357 357 359 6 8 12 13 13 16 24 30 32 40 52 55 57 60 69 78 86 88 89 87 97 110 117 118 119 121 122 123 127 127 129 129 131 130 128 130 129 132 133 131 134 143 143 136 118 107
39 42 87 89 223 32 358 318 347 335 340 344 50 43 4 327 346 341 37 19 340 345 342 317 329 335 343 349 347 344 353 356 355 355 358 359 1 2 5 8 11 11 13 18 19 23 34 39 43 52 57 57 58 64 65 77 80 87 92 94 102 105 111 115 118 121 123 124 125 125 122 119 115 116 117 120 124 125 126 131 132 124 109 104 103
336 305 196 159 119 325 30 38 12 336 320 323 74 32 327 307 18 340 16 358 349 352 355 347 323 313 329 351 356 358 353 351 351 355 358 0 2 6 9 13 12 15 14 17 17 26 34 42 48 52 56 59 64 70 74 75 79 82 83 86 90 97 100 103 109 111 111 111 111 107 105 108 114 115 118 119 112 110 104 105 110 110 106 105 108
7 4 6 353 187 337 50 44 345 313 315 324 75 216 279 80 36 351 328 304 287 103 34 352 339 294 313 354 15 7 5 357 357 358 1 1 8 14 16 18 20 22 18 15 16 31 38 43 48 53 57 57 61 69 74 76 79 83 87 90 90 89 89 89 91 97 103 105 103 104 104 101 101 99 101 101 102 103 104 108 110 108 107 110 115
345 313 312 291 323 54 91 118 285 305 296 292 278 298 271 163 117 283 283 262 244 117 107 42 338 343 341 357 35 28 8 5 2 3 5 6 8 11 18 23 23 24 26 28 30 37 45 48 42 46 54 56 55 56 60 67 75 83 84 87 87 85 85 85 86 93 99 101 100 100 100 102 104 108 103 96 99 99 105 108 106 106 109 114 117
311 18 24 22 52 90 105 156 277 274 282 272 282 249 296 331 191 255 300 317 92 137 113 119 66 340 348 0 37 55 20 13 11 10 11 9 10 12 18 19 23 28 31 32 34 39 50 56 56 60 57 57 57 58 58 58 64 73 80 83 82 80 79 78 81 88 99 103 102 100 98 96 97 98 94 97 103 107 106 106 110 112 114 112 111
359 60 75 86 65 101 126 239 267 276 276 344 9 4 353 335 357 30 304 308 149 86 110 121 109 60 26 1 15 71 56 22 17 14 14 11 14 13 12 16 21 27 32 35 35 42 50 56 62 64 65 60 59 60 60 58 58 62 63 70 75 78 75 74 73 74 78 89 93 92 93 96 98 95 96 98 101 107 107 109 108 106 103 105 108
19 21 21 12 49 111 113 11 284 289 348 50 358 1 338 355 353 352 297 329 348 122 126 114 134 123 98 43 9 43 86 72 38 27 21 17 20 20 17 19 22 29 31 36 39 48 52 58 64 65 63 65 66 65 63 62 64 65 66 68 70 70 70 68 67 67 65 69 83 90 92 91 88 90 91 96 96 92 94 93 92 96 101 100 99
27 22 17 7 11 18 14 15 25 357 34 97 1 349 346 351 354 354 343 344 356 30 95 120 111 115 111 77 30 25 73 86 72 57 46 40 31 31 30 27 31 34 37 37 42 49 58 62 65 66 66 69 68 67 66 65 64 64 65 68 70 68 63 64 64 67 70 72 75 82 85 89 88 89 86 85 83 83 84 88 100 101 98 99 100
37 26 27 18 17 16 9 13 4 360 2 356 45 37 15 2 3 10 14 1 3 7 21 63 79 79 96 109 104 46 53 94 106 93 79 67 55 46 44 42 38 37 40 43 45 50 56 61 64 68 71 71 71 70 69 68 66 65 65 65 66 68 67 68 69 68 69 75 76 82 87 91 92 92 88 88 91 98 102 105 103 98 100 100 98
32 31 28 26 26 20 14 10 16 23 17 15 18 26 12 7 8 12 4 2 4 2 2 21 54 56 50 61 91 90 68 57 57 66 77 96 86 67 61 59 53 43 43 45 47 50 56 59 62 65 70 73 75 77 77 77 76 73 72 70 66 64 63 64 68 67 64 66 68 72 76 81 85 87 89 98 102 106 106 102 102 104 98 91 91
27 29 27 25 32 27 19 20 20 25 27 21 21 23 18 12 12 12 5 360 2 1 0 10 14 18 41 37 27 42 61 59 58 60 55 63 94 105 82 68 64 61 53 50 48 50 53 55 62 68 72 75 76 78 80 81 81 81 78 76 72 71 72 68 65 62 62 66 71 80 84 91 91 99 107 110 110 107 104 103 105 99 97 94 93
25 22 26 24 29 27 27 23 24 25 26 26 23 23 24 20 12 13 8 3 1 360 0 5 14 10 15 27 24 26 45 57 56 66 62 50 66 111 114 97 90 84 79 67 62 57 55 55 57 63 66 71 73 75 74 79 82 90 90 86 80 83 87 89 83 83 91 103 111 115 122 123 124 121 116 112 107 105 110 109 104 99 97 98 102